[[[{"header":{"parameterUnit":"kt","parameterCategory":2,"dx":1,"dy":1,"la1":30.253999710083008,"la2":30.299108505249023,"lo1":-89.0895004272461,"lo2":-89.04439544677734,"nx":28,"ny":28,"refTime":"2022-09-27T15:00:00:Z","depth":0,"parameterNumber":1,"parameterNumberName":"U-component_of_WINDS"},"data":[-5.5608,-5.5701,-5.5683,-5.5781,-5.5782,-5.5845,-5.5862,-5.5882,-5.5894,-5.5967,-5.6006,-5.5997,-5.6002,-5.6044,-5.6084,-5.608,-5.6099,-5.6143,-5.613,-5.5946,-5.5919,-5.5894,-5.5871,-5.6148,-5.6148,-5.6324,-5.6326,-5.6327,-5.5472,-5.5474,-5.552,-5.5554,-5.5594,-5.554,-5.5562,-5.5599,-5.5657,-5.5672,-5.571,-5.5773,-5.582,-5.5809,-5.5851,-5.5894,-5.5871,-5.5906,-5.5903,-5.5905,-5.5707,-5.5683,-5.5924,-5.5924,-5.5924,-5.5924,-5.5924,-5.5924,-5.5219,-5.5275,-5.5286,-5.5336,-5.5349,-5.5371,-5.5422,-5.5411,-5.5456,-5.5499,-5.5469,-5.5535,-5.5547,-5.559,-5.56,-5.565,-5.5607,-5.5641,-5.565,-5.5659,-5.5671,-5.5419,-5.5656,-5.5655,-5.5655,-5.5654,-5.5653,0,-5.5029,-5.5011,-5.5055,-5.5094,-5.513,-5.5158,-5.5181,-5.5212,-5.5168,-5.5207,-5.5263,-5.5292,-5.5349,-5.5399,-5.5435,-5.5438,-5.5387,-5.538,-5.5403,-5.5419,-5.5428,-5.5425,-5.5103,-5.5374,-5.5371,-5.537,-5.5368,-5.5367,-5.4773,-5.4841,-5.4844,-5.4877,-5.4886,-5.4941,-5.4969,-5.4925,-5.4957,-5.4979,-5.5031,-5.5081,-5.5118,-5.521,-5.5196,-5.5239,-5.5215,-5.532,-5.5221,-5.5233,-5.5217,-5.5214,-5.522,-5.5341,-5.5344,-5.5347,-5.5349,0,-5.4631,-5.4603,-5.4703,-5.4699,-5.47,-5.4774,-5.477,-5.4824,-5.4807,-5.488,-5.4895,-5.4869,-5.4924,-5.4893,-5.4951,-5.4933,-5.5052,-5.5027,-5.5047,-5.5041,-5.5133,-5.5125,-5.5434,-5.5472,-5.5184,-5.5187,-5.519,0,-5.4402,-5.4494,-5.4446,-5.4506,-5.4605,-5.4558,-5.4658,-5.4654,-5.4663,-5.472,-5.4657,-5.4711,-5.4663,-5.4713,-5.4687,-5.4779,-5.479,-5.4782,-5.4774,-5.4789,-5.479,-5.4806,-5.4793,-5.4753,-5.4752,-5.475,-5.4749,0,-5.4183,-5.4265,-5.4362,-5.4376,-5.4382,-5.4428,-5.4432,-5.4443,-5.4472,-5.4504,-5.4522,-5.4564,-5.4587,-5.4619,-5.4586,-5.4519,-5.4697,-5.46,-5.4689,-5.469,-5.4732,-5.473,-5.501,-5.4747,-5.4747,-5.4746,-5.4746,0,-5.3995,-5.4029,-5.4174,-5.4176,-5.42,-5.4263,-5.4301,-5.4348,-5.4364,-5.4352,-5.4377,-5.4331,-5.4409,-5.4314,-5.4421,-5.4344,-5.437,-5.437,-5.4375,-5.4382,-5.4277,-5.444,-5.471,-5.4737,-5.4386,-5.4383,-5.438,0,-5.3752,-5.3891,-5.3852,-5.399,-5.405,-5.3974,-5.4044,-5.406,-5.4049,-5.4098,-5.4085,-5.4141,-5.4064,-5.4078,-5.4134,-5.4124,-5.4224,-5.411,-5.4181,-5.4184,-5.4179,-5.4427,-5.4475,-5.4654,-5.4341,-5.4345,-5.4348,0,-5.3561,-5.3567,-5.3595,-5.3609,-5.3624,-5.3674,-5.3754,-5.3799,-5.3834,-5.3859,-5.3925,-5.4003,-5.3948,-5.3971,-5.3939,-5.4,-5.4155,-5.3932,-5.3932,-5.3974,-5.4319,-5.4364,-5.4394,-5.4119,-5.4124,-5.4128,-5.4317,0,-5.3283,-5.3349,-5.3422,-5.3457,-5.349,-5.3575,-5.3543,-5.3582,-5.3547,-5.3534,-5.3631,-5.3637,-5.3684,-5.371,-5.3677,-5.3826,-5.3796,-5.3737,-5.3644,-5.3806,-5.3868,-5.3893,-5.3555,-5.3552,-5.3549,-5.3547,0,0,-5.3058,-5.3152,-5.3108,-5.3184,-5.321,-5.3131,-5.3225,-5.3241,-5.3275,-5.3295,-5.3242,-5.3354,-5.3362,-5.3483,-5.3531,-5.355,-5.3573,-5.3519,-5.3729,-5.375,-5.3768,-5.3835,-5.3862,-5.3543,-5.3542,-5.3541,-5.354,0,-5.2951,-5.296,-5.3054,-5.3068,-5.3087,-5.3069,-5.3091,-5.3097,-5.3093,-5.3188,-5.3122,-5.3176,-5.3268,-5.3285,-5.3305,-5.3502,-5.345,-5.3519,-5.3636,-5.3705,-5.3729,-5.375,-5.382,-5.3846,-5.3534,-5.3534,-5.3535,0,-5.2757,-5.2761,-5.2803,-5.2858,-5.287,-5.2934,-5.2827,-5.29,-5.2946,-5.2857,-5.2953,-5.2952,-5.2972,-5.3091,-5.3143,-5.3097,-5.334,-5.3258,-5.3273,-5.3278,-5.3344,-5.3373,-5.3398,-5.3063,-5.3061,-5.306,0,0,-5.2669,-5.273,-5.2721,-5.2832,-5.2845,-5.2819,-5.285,-5.2819,-5.2838,-5.2847,-5.2845,-5.2866,-5.2918,-5.2954,-5.3002,-5.3137,-5.3137,-5.3201,-5.3223,-5.3242,-5.3257,-5.3328,-5.3356,-5.3054,-5.3054,-5.3054,0,0,-5.2626,-5.262,-5.2582,-5.2707,-5.2728,-5.2727,-5.2796,-5.2749,-5.2789,-5.2776,-5.2727,-5.273,-5.2841,-5.2843,-5.2771,-5.2968,-5.2876,-5.2893,-5.2963,-5.299,-5.3012,-5.301,-5.2663,0,0,0,0,0,-5.25,-5.2621,-5.2586,-5.2602,-5.2672,-5.2746,-5.2755,-5.2717,-5.2652,-5.2708,-5.2699,-5.2641,-5.2794,-5.2728,-5.2745,-5.2827,-5.2981,-5.2994,-5.3006,-5.3128,-5.3157,-5.3182,0,0,0,0,0,0,-5.2506,-5.2526,-5.2582,-5.2587,-5.2602,-5.2741,-5.2624,-5.2617,-5.2645,-5.2633,-5.2645,-5.2642,-5.2611,-5.2717,-5.2733,-5.2812,-5.2658,-5.2986,-5.2997,-5.3007,-5.3138,-5.3162,-5.3182,0,0,0,0,0,-5.2511,-5.2527,-5.2649,-5.2585,-5.2599,-5.2577,-5.2619,-5.2612,-5.2634,-5.2621,-5.2615,-5.2603,-5.2614,-5.2625,-5.2726,-5.2805,-5.2647,-5.2653,-5.2993,-5.3002,-5.301,-5.3149,0,0,0,0,0,0,-5.2514,-5.2521,-5.2651,-5.2653,-5.2537,-5.2568,-5.2572,-5.2608,-5.2618,-5.2615,-5.2575,-5.2566,-5.2618,-5.2625,-5.2634,-5.2805,-5.2637,-5.2644,-5.2647,-5.3,-5.3007,-5.3013,0,0,0,0,0,0,-5.2512,-5.2524,-5.2652,-5.2594,-5.2589,-5.2561,-5.2564,-5.2644,-5.262,-5.2573,-5.2564,-5.2571,-5.2605,-5.2627,-5.2633,-5.276,-5.263,-5.2636,-5.264,-5.2643,-5.3005,-5.3011,0,0,0,0,0,0,-5.2517,-5.2527,-5.2593,-5.2589,-5.2585,-5.2611,-5.2631,-5.2705,-5.2569,-5.2573,-5.2556,-5.255,-5.2608,-5.2613,-5.2633,-5.2758,-5.276,-5.2631,-5.2635,-5.2637,-5.2639,0,0,0,0,0,0,0,-5.252,-5.2461,-5.2635,-5.2586,-5.2582,-5.2678,-5.2678,-5.2679,-5.2568,-5.2563,-5.2558,-5.2553,-5.2597,-5.2603,-5.261,-5.2756,0,0,-5.263,-5.2633,0,0,0,0,0,0,0,0,-5.2456,-5.246,-5.2636,-5.2636,-5.2637,-5.2678,-5.2678,-5.2679,-5.2567,-5.2563,-5.2559,-5.2555,-5.2598,-5.2604,-5.2609,0,0,0,0,0,0,0,0,0,0,0,0,0,0,0,-5.2636,-5.2636,0,-5.2678,-5.2678,-5.2679,-5.2567,-5.2563,-5.256,-5.2556,-5.26,-5.2604,-5.2609,0,0,0,0,0,0,0,0,0,0,0,0,0,0,0,0,0,0,0,0,0,0,0,0,0,0,0,0,0,0,0,0,0,0,0,0,0,0,0,0,0,0,0,0,0,0,0,0,0,0,0,0,0,0,0,0,0,0,0,0,0,0,0,0,0,0,0,0,0]}],[{"header":{"parameterUnit":"kt","parameterCategory":2,"dx":1,"dy":1,"la1":30.253999710083008,"la2":30.299108505249023,"lo1":-89.0895004272461,"lo2":-89.04439544677734,"nx":28,"ny":28,"refTime":"2022-09-27T15:00:00:Z","depth":0,"parameterNumber":2,"parameterNumberName":"V-component_of_WINDS"},"data":[-19.7773,-19.7921,-19.788,-19.803,-19.8017,-19.8112,-19.8132,-19.8153,-19.8159,-19.8266,-19.832,-19.8291,-19.8279,-19.8332,-19.8387,-19.8372,-19.8399,-19.8484,-19.8452,-19.8111,-19.8061,-19.8013,-19.7974,-19.8491,-19.8491,-19.881,-19.8813,-19.8815,-19.7533,-19.7523,-19.7589,-19.7624,-19.7681,-19.7575,-19.7593,-19.7647,-19.7734,-19.7742,-19.7791,-19.7881,-19.7946,-19.7903,-19.7957,-19.8025,-19.7976,-19.8043,-19.8036,-19.8035,-19.767,-19.763,-19.8082,-19.8082,-19.8081,-19.8081,-19.8081,-19.8081,-19.7083,-19.7174,-19.7169,-19.724,-19.7245,-19.7269,-19.7347,-19.7309,-19.7372,-19.7423,-19.7358,-19.7454,-19.7452,-19.7494,-19.7496,-19.757,-19.7487,-19.7545,-19.7559,-19.7575,-19.7599,-19.7147,-19.7577,-19.7575,-19.7574,-19.7573,-19.7572,0,-19.6739,-19.6697,-19.6756,-19.6804,-19.6853,-19.6885,-19.6906,-19.6953,-19.6844,-19.69,-19.6978,-19.7015,-19.7088,-19.7154,-19.7194,-19.7183,-19.7074,-19.7058,-19.7097,-19.713,-19.7156,-19.7144,-19.655,-19.7044,-19.704,-19.7036,-19.7034,-19.7032,-19.6281,-19.6391,-19.6363,-19.6411,-19.641,-19.6489,-19.6526,-19.6421,-19.6465,-19.6474,-19.6558,-19.6624,-19.667,-19.6801,-19.675,-19.6803,-19.675,-19.6944,-19.6757,-19.6786,-19.6752,-19.6746,-19.6757,-19.6982,-19.6988,-19.6993,-19.6998,0,-19.6028,-19.5953,-19.6108,-19.6067,-19.606,-19.6181,-19.6145,-19.623,-19.618,-19.629,-19.6309,-19.6231,-19.6308,-19.6225,-19.6295,-19.6249,-19.6447,-19.6394,-19.6448,-19.6432,-19.6597,-19.6583,-19.7146,-19.7214,-19.6679,-19.6684,-19.6689,0,-19.5607,-19.5754,-19.5633,-19.5727,-19.5888,-19.5776,-19.5938,-19.591,-19.5903,-19.5988,-19.585,-19.5933,-19.5812,-19.5883,-19.5815,-19.5962,-19.5975,-19.5948,-19.5928,-19.5959,-19.5963,-19.5978,-19.5953,-19.5878,-19.5875,-19.5873,-19.587,0,-19.5216,-19.5323,-19.5474,-19.5486,-19.5455,-19.5529,-19.5519,-19.5509,-19.5545,-19.5578,-19.56,-19.5648,-19.5673,-19.5712,-19.5624,-19.5501,-19.5801,-19.5612,-19.5773,-19.5776,-19.5841,-19.5838,-19.636,-19.5867,-19.5866,-19.5865,-19.5864,0,-19.4862,-19.4899,-19.513,-19.5099,-19.5131,-19.5231,-19.5268,-19.5334,-19.5333,-19.5296,-19.5321,-19.5216,-19.5337,-19.5156,-19.532,-19.5184,-19.5217,-19.5202,-19.5211,-19.5215,-19.5014,-19.5319,-19.5826,-19.5875,-19.5223,-19.5217,-19.5212,0,-19.4437,-19.4648,-19.4551,-19.4772,-19.4857,-19.4694,-19.4803,-19.4805,-19.4764,-19.4829,-19.4783,-19.4858,-19.4705,-19.4716,-19.4809,-19.4763,-19.4941,-19.4737,-19.4833,-19.4838,-19.4838,-19.5303,-19.5399,-19.5725,-19.5143,-19.515,-19.5155,0,-19.4095,-19.4053,-19.4099,-19.4107,-19.409,-19.4159,-19.4285,-19.4333,-19.4382,-19.4399,-19.45,-19.4603,-19.4492,-19.4511,-19.443,-19.4531,-19.4818,-19.4396,-19.4394,-19.4475,-19.51,-19.519,-19.5246,-19.4741,-19.4749,-19.4756,-19.51,0,-19.3578,-19.3672,-19.3792,-19.3812,-19.3852,-19.3984,-19.3891,-19.3945,-19.3862,-19.3813,-19.396,-19.3936,-19.3985,-19.4024,-19.3943,-19.4201,-19.4143,-19.4023,-19.3837,-19.4145,-19.4256,-19.4301,-19.368,-19.3674,-19.3669,-19.3665,0,0,-19.3189,-19.3319,-19.3206,-19.3321,-19.3347,-19.3173,-19.3322,-19.3327,-19.3341,-19.3363,-19.326,-19.3402,-19.3387,-19.3574,-19.3662,-19.3682,-19.3719,-19.3614,-19.3999,-19.4037,-19.4072,-19.4192,-19.4241,-19.3656,-19.3654,-19.3653,-19.3651,0,-19.2979,-19.2968,-19.3116,-19.3116,-19.3111,-19.3051,-19.3088,-19.3051,-19.3026,-19.3167,-19.3019,-19.3095,-19.321,-19.3213,-19.323,-19.359,-19.3473,-19.3612,-19.3837,-19.3952,-19.3996,-19.4035,-19.4163,-19.4211,-19.3639,-19.3639,-19.364,0,-19.2625,-19.2598,-19.2659,-19.2709,-19.2703,-19.2793,-19.2577,-19.2681,-19.2746,-19.2546,-19.2688,-19.2662,-19.2658,-19.2847,-19.2927,-19.2835,-19.3255,-19.3104,-19.3134,-19.314,-19.3246,-19.33,-19.3347,-19.2719,-19.2716,-19.2713,0,0,-19.2457,-19.2541,-19.2476,-19.2656,-19.2663,-19.2574,-19.2612,-19.2531,-19.253,-19.2531,-19.2493,-19.2498,-19.2563,-19.2608,-19.2664,-19.2885,-19.2874,-19.2995,-19.3038,-19.3074,-19.31,-19.3216,-19.3269,-19.2703,-19.2703,-19.2702,0,0,-19.2374,-19.2306,-19.2221,-19.2418,-19.2424,-19.2369,-19.2483,-19.2378,-19.2418,-19.2391,-19.2259,-19.2254,-19.2428,-19.2407,-19.2277,-19.2596,-19.2415,-19.2444,-19.2602,-19.2656,-19.2698,-19.2699,-19.2049,0,0,0,0,0,-19.2109,-19.2314,-19.2238,-19.2257,-19.2316,-19.2412,-19.2419,-19.2314,-19.2189,-19.2282,-19.2233,-19.2104,-19.231,-19.2191,-19.2211,-19.2357,-19.2566,-19.259,-19.2613,-19.2868,-19.2925,-19.2973,0,0,0,0,0,0,-19.2116,-19.2139,-19.2232,-19.2189,-19.2201,-19.2404,-19.2168,-19.2145,-19.2176,-19.215,-19.2118,-19.2103,-19.2015,-19.2173,-19.2193,-19.2334,-19.2042,-19.2575,-19.2596,-19.2615,-19.2888,-19.2934,-19.2974,0,0,0,0,0,-19.212,-19.2138,-19.2261,-19.2185,-19.2196,-19.2106,-19.2159,-19.2138,-19.216,-19.2084,-19.2065,-19.2078,-19.2022,-19.2032,-19.2185,-19.2328,-19.2027,-19.2035,-19.2589,-19.2605,-19.262,-19.2911,0,0,0,0,0,0,-19.2123,-19.212,-19.2261,-19.226,-19.2099,-19.2092,-19.2087,-19.2133,-19.209,-19.2074,-19.2037,-19.2017,-19.203,-19.2035,-19.2044,-19.2332,-19.2015,-19.2023,-19.2028,-19.2601,-19.2614,-19.2625,0,0,0,0,0,0,-19.2109,-19.2121,-19.226,-19.2157,-19.2144,-19.208,-19.2076,-19.219,-19.2092,-19.2045,-19.2026,-19.2029,-19.2017,-19.204,-19.2045,-19.2227,-19.2006,-19.2014,-19.2019,-19.2023,-19.2612,-19.2621,0,0,0,0,0,0,-19.2112,-19.2122,-19.2157,-19.2147,-19.2134,-19.2118,-19.2178,-19.2245,-19.2005,-19.205,-19.198,-19.1969,-19.2025,-19.2028,-19.2047,-19.2228,-19.2227,-19.2007,-19.2012,-19.2016,-19.2018,0,0,0,0,0,0,0,-19.2114,-19.2073,-19.2265,-19.2138,-19.2126,-19.2254,-19.2254,-19.2253,-19.2003,-19.1993,-19.1983,-19.1974,-19.1963,-19.1971,-19.198,-19.2228,0,0,-19.2006,-19.201,0,0,0,0,0,0,0,0,-19.2067,-19.2072,-19.2265,-19.2265,-19.2265,-19.2254,-19.2254,-19.2254,-19.2001,-19.1993,-19.1985,-19.1978,-19.1965,-19.1972,-19.1979,0,0,0,0,0,0,0,0,0,0,0,0,0,0,0,-19.2265,-19.2265,0,-19.2254,-19.2254,-19.2254,-19.2,-19.1993,-19.1987,-19.1981,-19.1967,-19.1973,-19.1978,0,0,0,0,0,0,0,0,0,0,0,0,0,0,0,0,0,0,0,0,0,0,0,0,0,0,0,0,0,0,0,0,0,0,0,0,0,0,0,0,0,0,0,0,0,0,0,0,0,0,0,0,0,0,0,0,0,0,0,0,0,0,0,0,0,0,0,0,0]}]]]